Regional Weather Roundup
Issued by NWS

Home | Current Version | Previous Version | Graphics & Text | Print | Product List | Glossary On
Versions: 1 2 3 4 5 6 7 8 9 10 11 12 13 14 15 16 17 18 19 20 21 22 23 24 25 26 27 28 29 30 31 32 33 34 35 36 37 38 39 40 41 42 43 44 45 46 47 48 49 50
000
ASUS43 KDTX 231210
RWRMI
MICHIGAN HOURLY REGIONAL WEATHER ROUNDUP
NATIONAL WEATHER SERVICE DETROIT/PONTIAC MI
700 AM EST TUE JAN 23 2018

NOTE: "FAIR" INDICATES FEW OR NO CLOUDS BELOW 12,000 FEET WITH NO
SIGNIFICANT WEATHER AND/OR OBSTRUCTION TO VISIBILITY.

MIZ047>049-052>055-059>063-066>070-074>076-081>083-231300-
SOUTHEAST LOWER MICHIGAN

CITY           SKY/WX    TMP DP  RH WIND       PRES   REMARKS
ADRIAN         LGT RAIN  35  33  92 W9        29.58R WCI  28
6HR MIN TEMP:  35; 6HR MAX TEMP:  44; 6HR PCP:  0.01;

ALMA           CLOUDY    36  36 100 S10G18    29.47R WCI  28
6HR MIN TEMP:  35; 6HR MAX TEMP:  43;

ANN ARBOR      LGT RAIN  36  35  96 S13       29.54R WCI  27
BAD AXE        CLOUDY    38  38  99 W15G25    29.44R WCI  30
6HR MIN TEMP:  38; 6HR MAX TEMP:  43;

CARO           CLOUDY    38  35  90 SW9G17    29.45R WCI  31
DETROIT CITY   LGT RAIN  38  34  85 W16G28    29.54R WCI  29
6HR MIN TEMP:  39; 6HR MAX TEMP:  48; 6HR PCP:  0.04;

DETROIT        LGT RAIN  37  34  89 SW16      29.56R WCI  28
6HR MIN TEMP:  37; 6HR MAX TEMP:  47; 6HR PCP:  0.09;

FLINT          FAIR      38  33  82 SW10      29.50R WCI  31
6HR MIN TEMP:  37; 6HR MAX TEMP:  47; 6HR PCP:  0.03;

GROSSE ILE     LGT RAIN  37  34  88 W14G23    29.55R WCI  29
6HR MIN TEMP:  37; 6HR MAX TEMP:  45;

HILLSDALE      LGT SNOW  32  32 100 SW9       29.54S WCI  24
HOWELL         LGT RAIN  38  34  86 SW13      29.51R WCI  30
6HR MIN TEMP:  38; 6HR MAX TEMP:  46; 6HR PCP:  0.01;


CITY           SKY/WX    TMP DP  RH WIND       PRES   REMARKS
JACKSON        LGT RAIN  35  33  92 S12       29.53R WCI  27
6HR MIN TEMP:  35; 6HR MAX TEMP:  45; 6HR PCP:  0.01;

LAMBERTVILLE   MOCLDY    36  33  88 SW10G18   29.58R WCI  29
6HR MIN TEMP:  36; 6HR MAX TEMP:  46;

LANSING        CLOUDY    37  33  85 SW14      29.50R WCI  28
6HR MIN TEMP:  37; 6HR MAX TEMP:  45; 6HR PCP: TRACE;

LAPEER         FAIR      38  34  83 SW13      29.48R WCI  31
6HR MIN TEMP:  38; 6HR MAX TEMP:  44;

MONROE         MOCLDY    37  33  86 SW12G21   29.56S WCI  29
6HR MIN TEMP:  37; 6HR MAX TEMP:  47;

MT. CLEMENS    CLOUDY   N/A N/A N/A SW14G24     N/A
PONTIAC        LGT RAIN  38  34  85 SW16G22   29.49R WCI  29
6HR MIN TEMP:  38; 6HR MAX TEMP:  45; 6HR PCP:  0.01;

PORT HOPE        N/A     42  39  89 SW8       29.40S
6HR MIN TEMP:  34; 6HR MAX TEMP:  43;

PORT HURON     MOCLDY    39  37  93 SW5       29.49R
TRI CITIES     CLOUDY    38  36  92 SW15      29.45F WCI  29
6HR MIN TEMP:  38; 6HR MAX TEMP:  45; 6HR PCP: TRACE;

MIDLAND        CLOUDY    38  37  97 SW8       29.44S WCI  32
6HR MIN TEMP:  38; 6HR MAX TEMP:  44;

TROY           LGT RAIN  40  35  84 SW13G23   29.54R WCI  32
SAGINAW HB     CLOUDY    37  34  87 SW17G24   29.46S WCI  28
$$
MIZ043>046-050>051-056>058-064>065-071>073-077>080-231300-
SOUTHWEST LOWER MICHIGAN

CITY           SKY/WX    TMP DP  RH WIND       PRES   REMARKS
BATTLE CREEK   CLOUDY    37  33  85 SW12      29.53R WCI  29
6HR MIN TEMP:  36; 6HR MAX TEMP:  41;

BENTON HARBOR  LGT SNOW  34  31  88 W14       29.56R FOG     WCI  25
6HR MIN TEMP:  34; 6HR MAX TEMP:  40; 6HR PCP:  0.02;

BIG RAPIDS     CLOUDY    36  34  93 S3        29.42R
6HR MIN TEMP:  35; 6HR MAX TEMP:  40; 6HR PCP:  0.05;

COLDWATER      LGT SNOW  33  33 100 SW7       29.56R WCI  27
6HR MIN TEMP:  33; 6HR MAX TEMP:  40;

FREMONT        CLOUDY    36  34  94 S3        29.41S FOG
6HR MIN TEMP:  35; 6HR MAX TEMP:  41;

HOLLAND        CLOUDY    34  31  88 W12G21    29.52R WCI  25
6HR MIN TEMP:  33; 6HR MAX TEMP:  41;

GRAND RAPIDS   CLOUDY    36  32  85 SW15      29.48R WCI  27
6HR MIN TEMP:  36; 6HR MAX TEMP:  42; 6HR PCP: TRACE;

IONIA          CLOUDY    36  33  88 SW20G26   29.47S WCI  26
6HR MIN TEMP:  36; 6HR MAX TEMP:  42;

KALAMAZOO      CLOUDY    37  32  82 SW12      29.54R WCI  29
6HR MIN TEMP:  36; 6HR MAX TEMP:  41;

LUDINGTON      LGT SNOW  30  29  98 N15G28    29.47R WCI  19
6HR MIN TEMP:  30; 6HR MAX TEMP:  39; 6HR PCP:  0.20;

MARSHALL       CLOUDY    35  35  99 SW12G18   29.53R WCI  27
6HR MIN TEMP:  35; 6HR MAX TEMP:  40;

MOUNT PLEASANT CLOUDY    38  36  93 SW8G16    29.44R WCI  32
6HR MIN TEMP:  37; 6HR MAX TEMP:  43; 6HR PCP:  0.13;

MUSKEGON       CLOUDY    34  31  88 W17G29    29.45R FOG     WCI  23
6HR MIN TEMP:  34; 6HR MAX TEMP:  40; 6HR PCP:  0.01;

SOUTH HAVEN    LGT SNOW  34  32  93 W6        29.55R WCI  29
$$
MIZ016>042-231300-
NORTHERN LOWER MICHIGAN

CITY           SKY/WX    TMP DP  RH WIND       PRES   REMARKS
ALPENA         CLOUDY    28  28 100 N12       29.49R FOG     WCI  18
6HR MIN TEMP:  28; 6HR MAX TEMP:  34; 6HR PCP: TRACE;

BEAVER ISLAND  CLOUDY    20  18  91 N3        29.58R
6HR MIN TEMP:  20; 6HR MAX TEMP:  26;

BELLAIRE       LGT SNOW  27  27  99 N5        29.51R WCI  22
6HR MIN TEMP:  27; 6HR MAX TEMP:  34;

CADILLAC       LGT SNOW  32  32  99 N9        29.41R WCI  24
CHARLEVOIX     CLOUDY    24  24 100 N5        29.56R FOG     WCI  19
6HR MIN TEMP:  24; 6HR MAX TEMP:  31;

FRANKFORT      LGT SNOW  28  27  94 N10G22    29.52R WCI  19
GAYLORD        LGT SNOW  25  25 100 N9        29.46R FOG     WCI  15
6HR MIN TEMP:  25; 6HR MAX TEMP:  30; 6HR PCP: TRACE;

GRAYLING       CLOUDY    31  29  93 N12       29.44R WCI  22
6HR MIN TEMP:  31; 6HR MAX TEMP:  33;

HARBOR SPRINGS CLOUDY    22  20  93 NE5       29.53R FOG     WCI  16
HOUGHTON LAKE  LGT RAIN  33  32  96 NE6       29.41R WCI  28
6HR MIN TEMP:  33; 6HR MAX TEMP:  35; 6HR PCP:  0.20;

MANISTEE       LGT SNOW  30  29  96 N10G20    29.49R FOG     WCI  21
OSCODA         CLOUDY    33  33  99 N7        29.43R WCI  27
6HR MIN TEMP:  33; 6HR MAX TEMP:  35; 6HR PCP:  0.03;

PELLSTON       LGT SNOW  21  19  92 N9        29.55R FOG     WCI  11
6HR MIN TEMP:  21; 6HR MAX TEMP:  28; 6HR PCP:  0.04;

ROGERS CITY    CLOUDY    24  24  96 NE5       29.52R FOG     WCI  19
TRAVERSE CITY  FRZ DRZL  29  26  89 N15G21    29.49R WCI  18
6HR MIN TEMP:  29; 6HR MAX TEMP:  36; 6HR PCP: TRACE;

$$
MIZ007>008-015-231300-
EASTERN UPPER MICHIGAN

CITY           SKY/WX    TMP DP  RH WIND       PRES   REMARKS
KINROSS        LGT SNOW  15  13  91 N13       29.57F FOG     WCI   1
6HR MIN TEMP:  15; 6HR MAX TEMP:  19;

MACKINAC ISLAN LGT SNOW  18  17  93 N15G21    29.55S WCI   4
6HR MIN TEMP:  18; 6HR MAX TEMP:  25;

NEWBERRY       CLOUDY    15  14  95 N14       29.61S WCI   1
6HR MIN TEMP:  15; 6HR MAX TEMP:  21;

S. S. MARIE    MIX PCPN  18   9  68 N10       29.58F WCI   6
6HR MIN TEMP:  18; 6HR MAX TEMP:  22; 6HR PCP:  0.03;

MUNISING         N/A     22  20  92 N24       29.68R WCI   5
6HR MIN TEMP:  22; 6HR MAX TEMP:  25; 6HR PCP:  0.01;

$$
MIZ004>006-011>014-085-231300-
CENTRAL UPPER MICHIGAN

CITY           SKY/WX    TMP DP  RH WIND       PRES   REMARKS
ESCANABA       FLURRIES  24  18  77 N15G23    29.64R WCI  11
6HR MIN TEMP:  24; 6HR MAX TEMP:  26; 6HR PCP: TRACE;

MENOMINEE      FLURRIES  25  21  86 N17G28    29.65R WCI  11
6HR MIN TEMP:  24; 6HR MAX TEMP:  28; 6HR PCP: TRACE;

SAWYER-GWINN   SNOW      21  19  93 N24G33    29.67R VSB 1/2 WCI   4
$$
MIZ001>003-009>011-084-231300-
WESTERN UPPER MICHIGAN

CITY           SKY/WX    TMP DP  RH WIND       PRES   REMARKS
IRON MOUNTAIN  LGT SNOW  22  19  89 N17G23    29.66R FOG     WCI   8
6HR MIN TEMP:  22; 6HR MAX TEMP:  26; 6HR PCP: TRACE;

HOUGHTON       LGT SNOW  19  13  77 N16G26    29.80R WCI   4
6HR MIN TEMP:  19; 6HR MAX TEMP:  22; 6HR PCP: TRACE;

COPPER HARBOR    N/A     21  17  84 NE23G33   29.84R WCI   5
6HR MIN TEMP:  21; 6HR MAX TEMP:  24; 6HR PCP:  0.03;

$$

ABBREVIATIONS USED IN REMARKS
   TC - TEMPERATURE IN CELSIUS
  WCI - WIND CHILL INDEX
   HX - HEAT INDEX
  VSB - VISIBILITY




USA.gov is the U.S. government's official web portal to all federal, state and local government web resources and services.